EJA801 KMDW-KTEX

Flight info

Callsign EJA801
Flight time N/A
Altitude 38000
Route PEKUE OBENE OGALE LNK/N0463F400 J146 HBU ETL
Aircraft CL60/M-SBDE1E2E3FGHIJ1J4J5J7M3RWXYZ/LB1V1D1

Departure

Time N/A
Airport Chicago Midway International Airport (KMDW)

Arrival

Time 2026-04-28 08:18
Airport Telluride Regional Airport (KTEX)
Time Latitude Longitude Altitude Speed Heading
2026-04-28 07:55 38.64469 -106.05201 40055 ft 421 kts 256°
2026-04-28 07:56 38.63083 -106.12455 40044 ft 422 kts 256°
2026-04-28 07:56 38.61688 -106.19736 40073 ft 422 kts 256°
2026-04-28 07:57 38.60290 -106.26999 40088 ft 422 kts 256°
2026-04-28 07:57 38.58886 -106.34268 40083 ft 422 kts 256°
2026-04-28 07:58 38.57474 -106.41558 40088 ft 422 kts 256°
2026-04-28 07:58 38.56066 -106.48798 40096 ft 422 kts 256°
2026-04-28 07:59 38.54641 -106.56098 40126 ft 421 kts 256°
2026-04-28 07:59 38.53215 -106.63377 40138 ft 422 kts 256°
2026-04-28 08:00 38.51785 -106.70656 40151 ft 423 kts 256°
2026-04-28 08:00 38.50347 -106.77947 40145 ft 424 kts 255°
2026-04-28 08:01 38.48896 -106.85279 40089 ft 424 kts 255°
2026-04-28 08:01 38.47455 -106.92532 40081 ft 423 kts 256°
2026-04-28 08:02 38.45998 -106.99844 40140 ft 423 kts 256°
2026-04-28 08:02 38.45270 -107.03474 40001 ft 427 kts 255°
2026-04-28 08:02 38.44450 -107.07151 39285 ft 422 kts 253°
2026-04-28 08:03 38.43612 -107.10660 38678 ft 410 kts 253°
2026-04-28 08:03 38.42792 -107.14091 37946 ft 404 kts 253°
2026-04-28 08:03 38.41985 -107.17471 37207 ft 397 kts 254°
2026-04-28 08:03 38.41184 -107.20819 36506 ft 392 kts 254°
2026-04-28 08:04 38.40396 -107.24110 35809 ft 390 kts 254°
2026-04-28 08:04 38.39604 -107.27417 35088 ft 389 kts 253°
2026-04-28 08:04 38.38810 -107.30718 34387 ft 388 kts 253°
2026-04-28 08:04 38.38024 -107.33984 33717 ft 387 kts 254°
2026-04-28 08:05 38.37241 -107.37236 33090 ft 385 kts 253°
2026-04-28 08:05 38.36457 -107.40490 32406 ft 380 kts 253°
2026-04-28 08:05 38.35690 -107.43673 31731 ft 376 kts 253°
2026-04-28 08:05 38.34925 -107.46839 31051 ft 371 kts 253°
2026-04-28 08:06 38.34177 -107.49937 30369 ft 367 kts 253°
2026-04-28 08:06 38.33435 -107.53008 29684 ft 362 kts 253°
2026-04-28 08:06 38.32692 -107.56078 28994 ft 359 kts 253°
2026-04-28 08:06 38.31963 -107.59083 28299 ft 358 kts 253°
2026-04-28 08:07 38.31229 -107.62109 27607 ft 355 kts 253°
2026-04-28 08:07 38.30517 -107.65043 26936 ft 354 kts 252°
2026-04-28 08:07 38.29778 -107.68086 26264 ft 352 kts 252°
2026-04-28 08:07 38.29099 -107.70875 25636 ft 351 kts 252°
2026-04-28 08:08 38.28359 -107.73914 24945 ft 350 kts 252°
2026-04-28 08:08 38.27638 -107.76872 24250 ft 349 kts 252°
2026-04-28 08:08 38.26923 -107.79798 23546 ft 348 kts 252°
2026-04-28 08:08 38.26208 -107.82722 22839 ft 345 kts 252°
2026-04-28 08:09 38.25493 -107.85650 22133 ft 342 kts 251°
2026-04-28 08:09 38.24796 -107.88492 21461 ft 341 kts 251°
2026-04-28 08:09 38.24096 -107.91348 20779 ft 338 kts 251°
2026-04-28 08:09 38.23399 -107.94189 20114 ft 336 kts 251°
2026-04-28 08:10 38.22703 -107.97024 19452 ft 333 kts 251°
2026-04-28 08:10 38.22013 -107.99827 18793 ft 331 kts 251°
2026-04-28 08:10 38.21333 -108.02587 18152 ft 328 kts 251°
2026-04-28 08:10 38.20654 -108.05343 17505 ft 325 kts 251°
2026-04-28 08:11 38.19984 -108.08061 16856 ft 314 kts 251°
2026-04-28 08:11 38.19218 -108.10591 16208 ft 304 kts 240°
2026-04-28 08:11 38.17926 -108.12646 15639 ft 294 kts 222°
2026-04-28 08:11 38.16237 -108.14014 15194 ft 285 kts 205°
2026-04-28 08:12 38.14334 -108.14660 14657 ft 284 kts 189°
2026-04-28 08:12 38.12383 -108.14668 14315 ft 274 kts 182°
2026-04-28 08:12 38.10519 -108.14584 13958 ft 266 kts 182°
2026-04-28 08:12 38.08698 -108.14509 13622 ft 256 kts 182°
2026-04-28 08:13 38.06943 -108.14434 13262 ft 240 kts 182°
2026-04-28 08:13 38.05318 -108.14365 12954 ft 226 kts 182°
2026-04-28 08:13 38.03742 -108.14301 12654 ft 226 kts 182°
2026-04-28 08:13 38.02159 -108.14204 12344 ft 229 kts 175°
2026-04-28 08:14 38.00714 -108.13420 12045 ft 224 kts 144°
2026-04-28 08:14 37.99857 -108.11974 12004 ft 212 kts 117°
2026-04-28 08:14 37.99428 -108.10228 12012 ft 201 kts 108°
2026-04-28 08:14 37.99085 -108.08545 11961 ft 194 kts 108°
2026-04-28 08:15 37.98733 -108.06874 11757 ft 202 kts 108°
2026-04-28 08:15 37.98367 -108.05151 10859 ft 204 kts 107°
2026-04-28 08:15 37.98011 -108.03464 10165 ft 187 kts 107°
2026-04-28 08:15 37.97680 -108.01999 10223 ft 168 kts 110°
2026-04-28 08:16 37.97387 -108.00553 10066 ft 164 kts 101°
2026-04-28 08:16 37.97140 -107.99146 10020 ft 162 kts 110°
2026-04-28 08:16 37.96849 -107.97737 10019 ft 168 kts 108°
2026-04-28 08:16 37.96556 -107.96293 10051 ft 166 kts 105°
2026-04-28 08:17 37.96249 -107.94858 9735 ft 169 kts 109°
2026-04-28 08:17 37.95970 -107.93606 9448 ft 161 kts 105°
2026-04-28 08:17 37.95676 -107.92265 9162 ft 149 kts 104°
2026-04-28 08:17 37.95425 -107.91087 9042 ft 124 kts 107°
2026-04-28 08:18 37.95283 -107.90404 9062 ft 48 kts 102°
2026-04-28 08:18 37.95241 -107.90161 9074 ft 14 kts 66°
2026-04-28 08:18 37.95318 -107.90118 9078 ft 4 kts
2026-04-28 08:18 37.95329 -107.90120 9078 ft 0 kts 347°
2026-04-28 08:19 37.95363 -107.90127 9078 ft 9 kts 352°
2026-04-28 08:19 37.95398 -107.90127 9079 ft 0 kts 19°